TimeCDT,TemperatureF,Dew PointF,Humidity,Sea Level PressureIn,VisibilityMPH,Wind Direction,Wind SpeedMPH,Gust SpeedMPH,PrecipitationIn,Events,Conditions,WindDirDegrees,DateUTC
12:53 AM,71.1,66.0,84,29.60,-9999.0,WNW,11.5,23.0,N/A,,Unknown,290,2012-10-01 05:53:00
1:53 AM,68.0,63.0,84,29.62,-9999.0,WNW,11.5,25.3,N/A,,Unknown,300,2012-10-01 06:53:00
2:53 AM,66.9,62.1,84,29.62,-9999.0,WNW,9.2,18.4,N/A,,Unknown,290,2012-10-01 07:53:00
3:53 AM,66.0,60.1,81,29.62,-9999.0,West,8.1,-,N/A,,Unknown,280,2012-10-01 08:53:00
4:53 AM,66.0,59.0,78,29.63,-9999.0,Variable,6.9,-,N/A,,Unknown,0,2012-10-01 09:53:00
5:53 AM,64.0,59.0,84,29.64,-9999.0,Variable,5.8,18.4,N/A,,Unknown,0,2012-10-01 10:53:00
6:53 AM,64.0,57.9,80,29.66,-9999.0,NW,6.9,-,N/A,,Unknown,320,2012-10-01 11:53:00
7:53 AM,64.0,57.9,80,29.68,-9999.0,NNW,8.1,-,N/A,,Unknown,330,2012-10-01 12:53:00
8:53 AM,64.9,59.0,81,29.70,-9999.0,NW,9.2,20.7,N/A,,Unknown,310,2012-10-01 13:53:00
9:53 AM,66.9,59.0,76,29.71,-9999.0,NW,8.1,18.4,N/A,,Unknown,320,2012-10-01 14:53:00
10:53 AM,66.9,61.0,81,29.71,-9999.0,NW,9.2,16.1,N/A,,Unknown,320,2012-10-01 15:53:00
11:53 AM,69.1,60.1,73,29.71,-9999.0,NW,8.1,18.4,N/A,,Unknown,320,2012-10-01 16:53:00
12:53 PM,70.0,57.9,65,29.70,-9999.0,NNW,8.1,-,N/A,,Unknown,330,2012-10-01 17:53:00
1:53 PM,71.1,59.0,66,29.69,-9999.0,Variable,6.9,-,N/A,,Unknown,0,2012-10-01 18:53:00
2:53 PM,73.0,60.1,64,29.69,-9999.0,Variable,6.9,-,N/A,,Unknown,0,2012-10-01 19:53:00
3:53 PM,73.0,60.1,64,29.69,-9999.0,Variable,6.9,-,N/A,,Unknown,0,2012-10-01 20:53:00
4:53 PM,75.9,59.0,56,29.69,-9999.0,NW,6.9,-,N/A,,Unknown,320,2012-10-01 21:53:00
5:53 PM,73.9,62.1,66,29.69,-9999.0,Calm,Calm,-,N/A,,Unknown,0,2012-10-01 22:53:00
6:53 PM,71.1,62.1,73,29.71,-9999.0,Calm,Calm,-,N/A,,Unknown,0,2012-10-01 23:53:00
7:53 PM,69.1,63.0,81,29.73,-9999.0,Calm,Calm,-,N/A,,Unknown,0,2012-10-02 00:53:00
8:53 PM,69.1,62.1,78,29.77,-9999.0,Variable,3.5,-,N/A,,Unknown,0,2012-10-02 01:53:00
9:53 PM,66.9,63.0,87,29.79,-9999.0,Calm,Calm,-,N/A,,Unknown,0,2012-10-02 02:53:00
10:53 PM,68.0,63.0,84,29.80,-9999.0,Calm,Calm,-,N/A,,Unknown,0,2012-10-02 03:53:00
11:53 PM,66.0,62.1,87,29.80,-9999.0,Calm,Calm,-,N/A,,Unknown,0,2012-10-02 04:53:00